Weather History for KHTS - September, 2013

Change the Weather History Date:

Sunday, September 15, 2013

  Actual Average Record
Temperature  
Mean Temperature 62 °F 68 °F  
Max Temperature 78 °F 79 °F 98 °F (1936)
Min Temperature 45 °F 57 °F 40 °F (1964)
Degree Days  
Heating Degree Days 3 1  
Month to date heating degree days 11 8  
Since 1 July heating degree days 15 10  
Cooling Degree Days 0 4  
Month to date cooling degree days 111 91  
Year to date cooling degree days 1143 1068  
Growing Degree Days 12 (Base 50)    
Moisture  
Dew Point 53 °F    
Average Humidity 75    
Maximum Humidity 100    
Minimum Humidity 50    
Precipitation  
Precipitation 0.00 in 0.09 in 1.89 in (1956)
Month to date precipitation 0.53 1.48  
Year to date precipitation 32.95 31.73  
Snow  
Snow 0.00 in - - ()
Month to date snowfall 0.0  
Since 1 September snowfall 0.0  
Snow Depth 0.00 in    
Sea Level Pressure  
Sea Level Pressure 30.12 in    
Wind  
Wind Speed 2 mph (SSW)    
Max Wind Speed 13 mph    
Max Gust Speed 17 mph    
Visibility 9 miles    
Events      
T = Trace of Precipitation, MM = Missing Value Source: NWS Daily Summary

Daily Weather History Graph

Daily Weather History Graph

Search for Another Location

Airport or City:

Trip Planner

Search our weather history database for the weather conditions in past years. The results will help you decide how hot, cold, wet, or windy it might be!

Date:

Astronomy

Sep. 15, 2013 Rise Set
Actual Time 7:12 AM EDT 7:37 PM EDT
Civil Twilight 6:45 AM EDT 8:04 PM EDT
Nautical Twilight 6:14 AM EDT 8:35 PM EDT
Astronomical Twilight 5:42 AM EDT 9:07 PM EDT
Moon 5:02 PM EDT (9/15) 2:51 AM EDT (9/15)
Length of Visible Light 13h 18m
Length of Day
12h 25m
Waxing Gibbous, 82% of the Moon is Illuminated
Sep 15
Waxing Gibbous
Sep 19
Full
Sep 26
Last Quarter
Oct 4
New
Oct 11
First Quarter

Hourly Weather History & Observations

Time (EDT) Temp. Windchill Dew Point Humidity Pressure Visibility Wind Dir Wind Speed Gust Speed Precip Events Conditions
12:51 AM 50.0 °F - 48.0 °F 93% 30.14 in 8.0 mi Calm Calm - N/A   Clear
1:51 AM 48.9 °F - 46.9 °F 93% 30.14 in 7.0 mi Calm Calm - N/A   Clear
2:51 AM 48.0 °F - 46.9 °F 96% 30.12 in 7.0 mi Calm Calm - N/A   Clear
3:51 AM 48.0 °F - 46.0 °F 93% 30.12 in 9.0 mi Calm Calm - N/A   Clear
4:51 AM 48.0 °F - 46.0 °F 93% 30.12 in 10.0 mi Calm Calm - N/A   Clear
5:51 AM 46.0 °F - 44.1 °F 93% 30.13 in 4.0 mi Calm Calm - N/A   Clear
6:01 AM 46.4 °F 45.2 °F 44.6 °F 93% 30.13 in 2.5 mi East 3.5 mph - N/A   Clear
6:08 AM 46.4 °F - 44.6 °F 93% 30.14 in 4.0 mi Calm Calm - N/A   Clear
6:51 AM 46.0 °F - 44.1 °F 93% 30.14 in 9.0 mi Calm Calm - N/A   Clear
7:51 AM 46.9 °F - 46.0 °F 97% 30.16 in 9.0 mi Calm Calm - N/A   Clear
8:07 AM 48.2 °F - 46.4 °F 93% 30.17 in 2.5 mi Calm Calm - N/A   Clear
8:30 AM 48.2 °F - 48.2 °F 100% 30.17 in 8.0 mi Calm Calm - N/A   Clear
8:51 AM 52.0 °F - 48.9 °F 89% 30.17 in 8.0 mi Calm Calm - N/A   Clear
9:51 AM 57.0 °F - 52.0 °F 83% 30.17 in 10.0 mi Calm Calm - N/A   Clear
10:51 AM 64.9 °F - 55.0 °F 70% 30.17 in 10.0 mi Variable 5.8 mph - N/A   Clear
11:51 AM 69.1 °F - 55.9 °F 63% 30.16 in 10.0 mi SSW 5.8 mph - N/A   Clear
12:51 PM 73.0 °F - 57.0 °F 57% 30.14 in 10.0 mi Variable 4.6 mph - N/A   Clear
1:51 PM 75.9 °F - 57.9 °F 54% 30.12 in 10.0 mi Variable 4.6 mph - N/A   Scattered Clouds
2:51 PM 78.1 °F - 59.0 °F 52% 30.11 in 10.0 mi WSW 9.2 mph - N/A   Mostly Cloudy
3:51 PM 77.0 °F - 57.0 °F 50% 30.09 in 10.0 mi SW 6.9 mph - N/A   Scattered Clouds
4:51 PM 77.0 °F - 57.0 °F 50% 30.08 in 10.0 mi SW 9.2 mph - N/A   Clear
5:51 PM 75.9 °F - 59.0 °F 56% 30.07 in 10.0 mi SW 3.5 mph - N/A   Clear
6:51 PM 75.0 °F - 59.0 °F 57% 30.07 in 10.0 mi SSW 3.5 mph - N/A   Clear
7:51 PM 71.1 °F - 60.1 °F 68% 30.07 in 10.0 mi Calm Calm - N/A   Clear
8:51 PM 66.9 °F - 60.1 °F 79% 30.08 in 10.0 mi Calm Calm - N/A   Clear
9:51 PM 64.0 °F - 61.0 °F 90% 30.08 in 10.0 mi Calm Calm - N/A   Clear
10:51 PM 63.0 °F - 60.1 °F 90% 30.07 in 10.0 mi Calm Calm - N/A   Scattered Clouds
11:51 PM 62.1 °F - 59.0 °F 90% 30.07 in 9.0 mi Calm Calm - N/A   Mostly Cloudy